Regional Weather Roundup
Issued by NWS Raleigh/Durham, NC

Home | Current Version | Previous Version | Text Only | Print | Product List | Glossary On
Versions: 1 2 3 4 5 6 7 8 9 10 11 12 13 14 15 16 17 18 19 20 21 22 23 24 25 26 27 28 29 30 31 32 33 34 35 36 37 38 39 40 41 42 43 44 45 46 47 48 49 50
000
ASUS42 KRAH 300510
RWRRAH
NORTH CAROLINA WEATHER ROUNDUP
NATIONAL WEATHER SERVICE RALEIGH NC
100 AM EDT SAT APR 30 2016

NOTE: "FAIR" INDICATES FEW OR NO CLOUDS BELOW 12,000 FEET WITH NO
SIGNIFICANT WEATHER AND/OR OBSTRUCTIONS TO VISIBILITY.

NCZ001-053-055-056-065-067-300600-
WESTERN NORTH CAROLINA

CITY           SKY/WX    TMP DP  RH WIND       PRES   REMARKS
ASHEVILLE      MOCLDY    65  48  54 N5        30.06F
JEFFERSON      CLOUDY    63  45  52 NW6       30.10S
MORGANTON      CLOUDY    59  55  87 CALM      30.06S
HICKORY        CLOUDY    65  55  70 CALM      30.01S
RUTHERFORDTON  MOCLDY    65  54  66 CALM      30.01S
MOUNT AIRY     PTCLDY    67  61  81 E8        30.05S
BOONE          CLOUDY    59  46  62 CALM      30.11S
$$

NCZ021-022-025-041-071-084-088-300600-
CENTRAL NORTH CAROLINA

CITY           SKY/WX    TMP DP  RH WIND       PRES   REMARKS
CHARLOTTE      PTCLDY    70  54  56 CALM      29.99S
GREENSBORO     PTCLDY    66  61  84 NE9       30.02R
WINSTON-SALEM  PTCLDY    64  59  83 NE9       30.04R
RALEIGH-DURHAM CLOUDY    62  58  86 NE5       30.04R
FORT BRAGG     PTCLDY    67  60  79 S3        30.00R
FAYETTEVILLE   PTCLDY    65  59  81 SW5       30.01R
BURLINGTON     PTCLDY    64  60  87 N7        30.03R
LAURINBURG     CLOUDY    68  62  81 S8        30.01R
$$

NCZ011-015-027-028-043-044-047-080-103-300600-
NORTHEASTERN NORTH CAROLINA

CITY           SKY/WX    TMP DP  RH WIND       PRES   REMARKS
ROCKY MT-WILSO PTCLDY    58  57  97 CALM      30.06R
GREENVILLE     CLEAR     59  59 100 CALM      30.06R
WASHINGTON     PTCLDY    57  56  97 NE5       30.04R
ELIZABETH CITY CLOUDY    55  53  93 N13       30.06R
MANTEO         NOT AVBL
CAPE HATTERAS  CLOUDY    58  56  93 VRB7      30.03R
$$

NCZ078-087-090-091-093-098-101-300600-
SOUTHEASTERN NORTH CAROLINA

CITY           SKY/WX    TMP DP  RH WIND       PRES   REMARKS
LUMBERTON      MOCLDY    67  63  87 CALM      30.01R
GOLDSBORO      PTCLDY    59  59 100 CALM      30.01R
KINSTON        PTCLDY    58  56  95 CALM      30.03S
KENANSVILLE    CLEAR     59  57  95 CALM      30.03R
NEW BERN       CLEAR     62  58  86 E5        30.02R
CHERRY POINT   CLEAR     58  56  93 SE5       30.02R
BEAUFORT       CLOUDY    64  62  93 E3        30.01S
JACKSONVILLE   CLEAR     60  57  89 SW5       30.01R
WILMINGTON     CLEAR     65  61  87 CALM      30.01R
$$




USA.gov is the U.S. government's official web portal to all federal, state and local government web resources and services.